Weather History for Sturgeon Bay, WI

Change the Weather History Date:

Thursday, March 21, 2013

  Actual Average Record
Temperature  
Mean Temperature 20 °F -  
Max Temperature 28 °F 39 °F 61 °F (1918)
Min Temperature 12 °F 23 °F -2 °F (1965)
Degree Days  
Heating Degree Days 45    
Moisture  
Dew Point 10 °F    
Average Humidity 64    
Maximum Humidity 79    
Minimum Humidity 51    
Precipitation  
Precipitation 0.00 in - - ()
Sea Level Pressure  
Sea Level Pressure 29.95 in    
Wind  
Wind Speed 10 mph (NW)    
Max Wind Speed 16 mph    
Max Gust Speed 21 mph    
Visibility 10 miles    
Events      
Averages and records for this station are not official NWS values.
T = Trace of Precipitation, MM = Missing Value Source: NWS Daily Summary

Daily Weather History Graph

Daily Weather History Graph

Search for Another Location

Airport:

Trip Planner

Search our weather history database for the weather conditions in past years. The results will help you decide how hot, cold, wet, or windy it might be!

Date:

Astronomy

Mar. 21, 2013 Rise Set
Actual Time 6:50 AM CDT 7:03 PM CDT
Civil Twilight 6:21 AM CDT 7:33 PM CDT
Nautical Twilight 5:46 AM CDT 8:07 PM CDT
Astronomical Twilight 5:11 AM CDT 8:42 PM CDT
Moon 1:21 PM CDT (3/21) 3:24 AM CDT (3/21)
Length of Visible Light 13h 11m
Length of Day
12h 13m
Waxing Gibbous, 69% of the Moon is Illuminated
Mar 21
Waxing Gibbous
Mar 27
Full
Apr 2
Last Quarter
Apr 10
New
Apr 18
First Quarter

Hourly Weather History & Observations

Time (CDT) Temp. Windchill Dew Point Humidity Pressure Visibility Wind Dir Wind Speed Gust Speed Precip Events Conditions
12:35 AM 19.4 °F 5.5 °F 8.6 °F 63% 29.94 in 10.0 mi WNW 15.0 mph 18.4 mph N/A   Overcast
1:15 AM 17.6 °F 3.7 °F 6.8 °F 63% 29.94 in 10.0 mi WNW 13.8 mph - N/A   Overcast
1:35 AM 17.6 °F 3.2 °F 6.8 °F 63% 29.94 in 10.0 mi WNW 15.0 mph 18.4 mph N/A   Overcast
1:55 AM 17.6 °F 3.7 °F 6.8 °F 63% 29.94 in 10.0 mi WNW 13.8 mph 19.6 mph N/A   Overcast
2:15 AM 15.8 °F 2.1 °F 6.8 °F 68% 29.93 in 10.0 mi WNW 12.7 mph - N/A   Overcast
2:35 AM 15.8 °F 2.7 °F 6.8 °F 68% 29.93 in 10.0 mi WNW 11.5 mph - N/A   Overcast
2:55 AM 15.8 °F 1.4 °F 6.8 °F 68% 29.93 in 10.0 mi WNW 13.8 mph - N/A   Overcast
3:15 AM 15.8 °F 2.1 °F 6.8 °F 68% 29.93 in 10.0 mi WNW 12.7 mph 17.3 mph N/A   Overcast
3:35 AM 15.8 °F 2.7 °F 8.6 °F 73% 29.92 in 10.0 mi WNW 11.5 mph - N/A   Overcast
3:55 AM 15.8 °F 2.1 °F 6.8 °F 68% 29.92 in 10.0 mi WNW 12.7 mph - N/A   Overcast
4:15 AM 15.8 °F 1.4 °F 6.8 °F 68% 29.92 in 10.0 mi WNW 13.8 mph - N/A   Overcast
4:35 AM 15.8 °F 2.7 °F 6.8 °F 68% 29.93 in 10.0 mi West 11.5 mph 17.3 mph N/A   Overcast
4:55 AM 15.8 °F 3.4 °F 6.8 °F 68% 29.93 in 10.0 mi West 10.4 mph - N/A   Overcast
5:15 AM 14.0 °F 1.2 °F 6.8 °F 73% 29.93 in 10.0 mi WNW 10.4 mph - N/A   Partly Cloudy
5:35 AM 14.0 °F 1.2 °F 6.8 °F 73% 29.93 in 10.0 mi WNW 10.4 mph - N/A   Mostly Cloudy
5:55 AM 14.0 °F 2.9 °F 8.6 °F 79% 29.93 in 10.0 mi West 8.1 mph - N/A   Overcast
6:15 AM 12.2 °F 1.7 °F 6.8 °F 79% 29.93 in 10.0 mi WNW 6.9 mph - N/A   Overcast
6:35 AM 14.0 °F 3.9 °F 8.6 °F 79% 29.93 in 10.0 mi West 6.9 mph - N/A   Overcast
6:55 AM 14.0 °F 6.5 °F 8.6 °F 79% 29.93 in 10.0 mi West 4.6 mph - N/A   Overcast
7:15 AM 14.0 °F 5.1 °F 6.8 °F 73% 29.93 in 10.0 mi WNW 5.8 mph - N/A   Mostly Cloudy
7:35 AM 12.2 °F 2.9 °F 6.8 °F 79% 29.93 in 10.0 mi West 5.8 mph - N/A   Mostly Cloudy
7:55 AM 14.0 °F 5.1 °F 8.6 °F 79% 29.93 in 10.0 mi West 5.8 mph - N/A   Overcast
8:15 AM 15.8 °F 10.2 °F 10.4 °F 79% 29.93 in 10.0 mi WNW 3.5 mph - N/A   Overcast
8:35 AM 19.4 °F 7.9 °F 12.2 °F 74% 29.94 in 10.0 mi NNW 10.4 mph - N/A   Overcast
8:55 AM 19.4 °F 6.6 °F 12.2 °F 74% 29.94 in 10.0 mi NNW 12.7 mph - N/A   Overcast
9:15 AM 21.2 °F 8.9 °F 12.2 °F 68% 29.95 in 10.0 mi NNW 12.7 mph - N/A   Overcast
9:35 AM 21.2 °F 7.8 °F 12.2 °F 68% 29.95 in 10.0 mi NNW 15.0 mph 20.7 mph N/A   Overcast
9:55 AM 21.2 °F 8.3 °F 12.2 °F 68% 29.95 in 10.0 mi NNW 13.8 mph - N/A   Mostly Cloudy
10:15 AM 23.0 °F 9.6 °F 12.2 °F 63% 29.96 in 10.0 mi NNW 16.1 mph - N/A   Partly Cloudy
10:35 AM 23.0 °F 10.1 °F 12.2 °F 63% 29.96 in 10.0 mi NNW 15.0 mph 18.4 mph N/A   Scattered Clouds
10:55 AM 23.0 °F 10.6 °F 12.2 °F 63% 29.96 in 10.0 mi NW 13.8 mph 20.7 mph N/A   Partly Cloudy
11:15 AM 24.8 °F 13.4 °F 12.2 °F 59% 29.97 in 10.0 mi NW 12.7 mph - N/A   Clear
11:35 AM 24.8 °F 12.4 °F 12.2 °F 59% 29.97 in 10.0 mi NW 15.0 mph - N/A   Clear
11:55 AM 24.8 °F 13.4 °F 12.2 °F 59% 29.97 in 10.0 mi NNW 12.7 mph - N/A   Partly Cloudy
12:15 PM 24.8 °F 14.0 °F 12.2 °F 59% 29.96 in 10.0 mi NNW 11.5 mph - N/A   Partly Cloudy
12:35 PM 24.8 °F 13.4 °F 12.2 °F 59% 29.97 in 10.0 mi West 12.7 mph 16.1 mph N/A   Clear
12:55 PM 24.8 °F 14.0 °F 12.2 °F 59% 29.97 in 10.0 mi WNW 11.5 mph - N/A   Clear
1:15 PM 26.6 °F 16.2 °F 12.2 °F 55% 29.96 in 10.0 mi WNW 11.5 mph - N/A   Clear
1:35 PM 26.6 °F 15.7 °F 12.2 °F 55% 29.96 in 10.0 mi West 12.7 mph - N/A   Clear
1:55 PM 26.6 °F 15.7 °F 14.0 °F 59% 29.95 in 10.0 mi WNW 12.7 mph - N/A   Clear
2:15 PM 26.6 °F 16.2 °F 12.2 °F 55% 29.95 in 10.0 mi WNW 11.5 mph - N/A   Clear
2:35 PM 26.6 °F 15.2 °F 14.0 °F 59% 29.95 in 10.0 mi WNW 13.8 mph - N/A   Scattered Clouds
2:55 PM 26.6 °F 16.2 °F 12.2 °F 55% 29.95 in 10.0 mi West 11.5 mph - N/A   Overcast
3:15 PM 26.6 °F 17.5 °F 12.2 °F 55% 29.95 in 10.0 mi WNW 9.2 mph - N/A   Overcast
3:35 PM 26.6 °F 17.5 °F 14.0 °F 59% 29.95 in 10.0 mi West 9.2 mph - N/A   Overcast
3:55 PM 26.6 °F 19.1 °F 14.0 °F 59% 29.95 in 10.0 mi West 6.9 mph - N/A   Overcast
4:15 PM 28.4 °F 21.2 °F 12.2 °F 51% 29.95 in 10.0 mi NW 6.9 mph - N/A   Overcast
4:35 PM 26.6 °F 20.0 °F 12.2 °F 55% 29.95 in 10.0 mi WNW 5.8 mph - N/A   Overcast
4:55 PM 26.6 °F - 12.2 °F 55% 29.95 in 10.0 mi Calm Calm - N/A   Overcast
5:15 PM 26.6 °F - 12.2 °F 55% 29.95 in 10.0 mi Calm Calm - N/A   Overcast
5:35 PM 28.4 °F - 12.2 °F 51% 29.95 in 10.0 mi Calm Calm - N/A   Overcast
5:55 PM 28.4 °F - 12.2 °F 51% 29.95 in 10.0 mi Calm Calm - N/A   Overcast
6:15 PM 28.4 °F - 12.2 °F 51% 29.95 in 10.0 mi Calm Calm - N/A   Mostly Cloudy
6:35 PM 28.4 °F 24.6 °F 12.2 °F 51% 29.95 in 10.0 mi NNW 3.5 mph - N/A   Mostly Cloudy
6:55 PM 26.6 °F 21.2 °F 12.2 °F 55% 29.96 in 10.0 mi NNE 4.6 mph - N/A   Overcast
7:15 PM 26.6 °F 22.6 °F 12.2 °F 55% 29.96 in 10.0 mi NNE 3.5 mph - N/A   Overcast
7:35 PM 26.6 °F - 10.4 °F 51% 29.96 in 10.0 mi Calm Calm - N/A   Mostly Cloudy
7:55 PM 24.8 °F 20.5 °F 10.4 °F 54% 29.96 in 10.0 mi NNE 3.5 mph - N/A   Partly Cloudy
8:15 PM 24.8 °F - 10.4 °F 54% 29.97 in 10.0 mi Calm Calm - N/A   Clear
8:35 PM 21.2 °F - 10.4 °F 63% 29.97 in 10.0 mi Calm Calm - N/A   Clear
8:55 PM 21.2 °F - 10.4 °F 63% 29.97 in 10.0 mi Calm Calm - N/A   Clear
9:15 PM 21.2 °F - 10.4 °F 63% 29.97 in 10.0 mi Calm Calm - N/A   Clear
9:55 PM 21.2 °F - 12.2 °F 68% 29.98 in 10.0 mi Calm Calm - N/A   Clear
10:15 PM 19.4 °F 12.8 °F 10.4 °F 68% 29.99 in 10.0 mi North 4.6 mph - N/A   Clear
10:35 PM 19.4 °F 11.5 °F 10.4 °F 68% 29.99 in 10.0 mi North 5.8 mph - N/A   Clear
10:55 PM 21.2 °F 12.6 °F 10.4 °F 63% 29.99 in 10.0 mi North 6.9 mph - N/A   Clear
11:15 PM 19.4 °F 8.6 °F 10.4 °F 68% 29.99 in 10.0 mi North 9.2 mph - N/A   Clear
11:35 PM 19.4 °F 8.6 °F 10.4 °F 68% 29.99 in 10.0 mi North 9.2 mph - N/A   Clear
11:55 PM 19.4 °F 9.5 °F 10.4 °F 68% 29.99 in 10.0 mi North 8.1 mph - N/A   Clear